Flag for United Kingdom Weather past 2 weeks in Reading, England, United Kingdom

Now
68 °F

Partly sunny.


Feels Like: 68 °F
Forecast: 57 / 69 °F
Wind: 14 mph from South

Location: Benson

Current Time: Jul 6, 2015 at 3:15:38 PM

Latest Report: Jul 6, 2015 at 2:50 PM


Visibility: N/A

Pressure: 30.07 "Hg

Humidity: 49%

Dew point: 48 °F

Location of ReadingLocation

Historic Weather in Reading — Graph

°F

Reading temperature yesterday

Maximum temperature yesterday: 73 °F (at 1:50 PM)
Minimum temperature yesterday: 48 °F (at 4:50 AM)
Average temperature yesterday: 60 °F

Past Weeks' High & Low Weather Summary

 TemperatureHumidityPressure
High91 °F (Jul 1, 3:50 PM)100% (Jun 25, 4:50 AM)30.30 "Hg (Jun 25, 4:50 AM)
Low45 °F (Jul 3, 4:50 AM)26% (Jun 30, 1:50 PM)29.80 "Hg (Jun 22, 11:50 AM)
Average64 °F70%30.06 "Hg
* Reported Jun 21 1:50 PM — Jul 6 1:50 PM, Reading, Weather by CustomWeather, © 2015

Note: Actual official high and low records may vary slightly from our data, if they occured in-between our weather recording intervals... More about our weather records

Advertising

Reading weather history for previous 24 hours

 ConditionsComfort  
Time TempWeatherWind HumidityBarometerVisibility
1:50 PM
Mon, Jul 6
66 °FLight rain. Partly sunny.16 mph56%30.07 "HgN/A
12:50 PM68 °FMore clouds than sun.13 mph53%30.07 "HgN/A
11:50 AM68 °FScattered clouds.14 mph53%30.09 "HgN/A
10:50 AM64 °FScattered clouds.14 mph60%30.09 "HgN/A
9:50 AM63 °FPassing clouds.13 mph64%30.09 "HgN/A
8:50 AM63 °FScattered clouds.10 mph68%30.12 "HgN/A
7:50 AM57 °FSunny.9 mph88%30.12 "Hg10 mi
6:50 AM55 °FSunny.7 mph88%30.12 "Hg10 mi
5:50 AM50 °FClear.3 mph94%30.09 "HgN/A
4:50 AM48 °FClear.7 mph100%30.09 "HgN/A
3:50 AM48 °FClear.7 mph100%30.09 "HgN/A
2:50 AM50 °FClear.6 mph94%30.09 "HgN/A
1:50 AM50 °FClear.6 mph94%30.09 "HgN/A
12:50 AM54 °FClear.6 mph94%30.09 "HgN/A
11:50 PM
Sun, Jul 5
54 °FClear.5 mph94%30.07 "HgN/A
10:50 PM57 °FClear.6 mph88%30.07 "HgN/A
9:50 PM59 °FSunny.7 mph82%30.04 "HgN/A
8:50 PM61 °FSunny.8 mph77%30.04 "HgN/A
7:50 PM63 °FPassing clouds.10 mph68%30.01 "HgN/A
6:50 PM63 °FOvercast.9 mph68%30.01 "HgN/A
5:50 PM61 °FPartly sunny.14 mph72%30.01 "HgN/A
4:50 PM63 °FPartly sunny.5 mph77%30.01 "HgN/A
3:50 PM64 °FPartly sunny.14 mph60%30.01 "HgN/A
Weather by CustomWeather, © 2015

See weather overviewHow to use our weather pages